User: anonymous   Login
Location: Observatorio Las Palmas
(29.0667°N, 110.9333°W)
Time: 10:18:39
(UTC-07:00)
Language:

NOAA 19 - Orbit

View from above orbital plane
View from above orbital plane
View from above satellite
View from above satellite

Ground track
Ground track

The orbit data is extracted from the following two-line orbital elements,

1 33591U 09005A   16269.49053444  .00000104  00000-0  81414-4 0  9999
2 33591  99.0517 227.1408 0013156 299.5177  60.4682 14.12109457393290
Epoch (UTC): 25 September 2016 11:46:22
Eccentricity: 0.0013156
inclination: 99.0517°
perigee height: 842 km
apogee height: 861 km
right ascension of ascending node: 227.1408°
argument of perigee: 299.5177°
revolutions per day: 14.12109457
mean anomaly at epoch: 60.4682°
orbit number at epoch: 39329

The dashed part of the orbit path shows where the satellite is in the earth's shadow,  

DLR